Location: Mountain_View
(35.6670°N, 81.4000°W)
Time: 06:42:02
(UTC-05:00)

ISS - Pass Details

Date: 22 November 2019
Orbit: 411 x 421 km, 51.6° (Epoch: 10 December)

Event Time Altitude Azimuth Distance (km) Brightness Sun altitude
Rises 18:33:47 0° 240° (WSW) 2,342 1.6 -15.9°
Reaches altitude 10° 18:35:55 10° 247° (WSW) 1,485 0.3 -16.4°
Maximum altitude 18:39:08 46° 322° (NW) 571 -3.0 -17.0°
Enters shadow 18:40:26 29° 17° (NNE) 794 -2.6 -17.3°
